Volver al catálogo

COSMOS 886 DEB

ActivoLEO
NORAD 9824·DEBRIS·🇷🇺 Russia

Lanzado Dec 27, 1976 desde Baikonur Cosmodrome

Loading…

Próximos Pases (próximas 24 horas)

TLE

ActualizadoSource: Space-Track

Época: Sep 14, 2026, 14:54 UTC

1 09824U 76126AL  26257.62106716  .00002966  00000-0  68031-3 0  9990
2 09824  65.8082 223.8849 0861664 346.8041  11.1671 13.32949337366597

Sigue COSMOS 886 DEB en tiempo real con AllMySat

Download on the App Store